[Date Prev][Date Next][Thread Prev][Thread Next] - [Date Index][Thread Index][Author Index]

2 Line ISS Keps 7-4



ISS
1 25544U 98067A   03185.14471477  .00013920  00000-0  17380-3 0  1878
2 25544  51.6331 294.9531 0007970 330.9491 100.6931 15.60132670263659


----
Via the sarex mailing list at AMSAT.ORG courtesy of AMSAT-NA.
To unsubscribe, send "unsubscribe sarex" to Majordomo@amsat.org



AMSAT Top AMSAT Home